• In Hungary
  • List of Countries
  • For 7 days
  • Water Temperature
  • Satellite Maps
  • Weather Map
  • News
  • Weather Widgets
  • user-avatar
    Login

    Hourly Weather Kaduna

    Today, 24 September, Monday

    Time Temperature Precipitation Wind Pressure Humidity
    00:00 +25°C° 0 mm 1 mps 709 mmHg 90%
    01:00 +24°C° 0 mm 1 mps 708 mmHg 90%
    02:00 +24°C° 0 mm 1 mps 708 mmHg 91%
    03:00 +24°C° 0 mm 1 mps 708 mmHg 92%
    04:00 +24°C° 0 mm 1 mps 708 mmHg 92%
    05:00 +24°C° 0 mm 1 mps 708 mmHg 92%
    06:00 +24°C° 0 mm 1 mps 709 mmHg 91%
    07:00 +26°C° 0.1 mm 1 mps 709 mmHg 84%
    08:00 +28°C° 0.1 mm 1 mps 709 mmHg 77%
    09:00 +30°C° 0.1 mm 1 mps 710 mmHg 69%
    10:00 +32°C° 0.3 mm 1 mps 709 mmHg 62%
    11:00 +34°C° 0.3 mm 1 mps 709 mmHg 54%
    12:00 +33°C° 0 mm 0 mps 709 mmHg 49%
    13:00 +34°C° 0 mm 1 mps 709 mmHg 48%
    14:00 +34°C° 0 mm 1 mps 708 mmHg 47%
    15:00 +34°C° 0 mm 1 mps 708 mmHg 46%
    16:00 +32°C° 0 mm 1 mps 708 mmHg 51%
    17:00 +31°C° 0 mm 1 mps 707 mmHg 57%
    18:00 +29°C° 0 mm 1 mps 707 mmHg 62%
    19:00 +28°C° 0.3 mm 1 mps 708 mmHg 67%
    20:00 +28°C° 0.3 mm 1 mps 708 mmHg 72%
    21:00 +27°C° 0.3 mm 1 mps 708 mmHg 77%
    22:00 +26°C° 1.6 mm 1 mps 708 mmHg 79%
    23:00 +25°C° 1.6 mm 2 mps 708 mmHg 82%

    Tomorrow, 25 September, Tuesday

    Time Temperature Precipitation Wind Pressure Humidity
    00:00 +24°C° 1.6 mm 2 mps 708 mmHg 84%
    01:00 +24°C° 0.1 mm 2 mps 708 mmHg 83%
    02:00 +24°C° 0.1 mm 1 mps 708 mmHg 82%
    03:00 +24°C° 0.1 mm 1 mps 708 mmHg 81%
    04:00 +24°C° 0.2 mm 1 mps 708 mmHg 81%
    05:00 +24°C° 0.2 mm 1 mps 708 mmHg 81%
    06:00 +24°C° 0.2 mm 1 mps 708 mmHg 81%
    07:00 +26°C° 0.1 mm 1 mps 709 mmHg 75%
    08:00 +28°C° 0.1 mm 1 mps 709 mmHg 69%
    09:00 +30°C° 0.1 mm 1 mps 710 mmHg 63%
    10:00 +31°C° 0 mm 2 mps 709 mmHg 58%
    11:00 +34°C° 0 mm 2 mps 709 mmHg 52%
    12:00 +35°C° 0 mm 2 mps 709 mmHg 47%
    13:00 +35°C° 0.2 mm 2 mps 708 mmHg 49%
    14:00 +34°C° 0.2 mm 2 mps 707 mmHg 50%
    15:00 +34°C° 0.2 mm 2 mps 707 mmHg 51%
    16:00 +31°C° 0.2 mm 2 mps 707 mmHg 59%
    17:00 +30°C° 0.2 mm 2 mps 707 mmHg 66%
    18:00 +28°C° 0.2 mm 2 mps 707 mmHg 73%
    19:00 +27°C° 0.4 mm 2 mps 707 mmHg 77%
    20:00 +27°C° 0.4 mm 1 mps 708 mmHg 81%
    21:00 +26°C° 0.4 mm 1 mps 708 mmHg 85%
    22:00 +26°C° 1.1 mm 1 mps 708 mmHg 86%
    23:00 +25°C° 1.1 mm 1 mps 708 mmHg 86%

    Day after tomorrow, 26 September, Wednesday

    Time Temperature Precipitation Wind Pressure Humidity
    00:00 +25°C° 1.1 mm 1 mps 708 mmHg 87%
    01:00 +25°C° 0.1 mm 1 mps 708 mmHg 87%
    02:00 +25°C° 0.1 mm 2 mps 707 mmHg 88%
    03:00 +25°C° 0.1 mm 2 mps 707 mmHg 88%
    04:00 +24°C° 0 mm 2 mps 707 mmHg 89%
    05:00 +24°C° 0 mm 2 mps 708 mmHg 91%
    06:00 +24°C° 0 mm 2 mps 708 mmHg 92%
    07:00 +26°C° 0 mm 2 mps 708 mmHg 85%
    08:00 +27°C° 0 mm 2 mps 709 mmHg 77%
    09:00 +29°C° 0 mm 2 mps 710 mmHg 70%
    10:00 +31°C° 0 mm 2 mps 709 mmHg 64%
    11:00 +32°C° 0 mm 2 mps 709 mmHg 58%
    12:00 +35°C° 0 mm 2 mps 708 mmHg 51%
    13:00 +35°C° 0.5 mm 2 mps 708 mmHg 53%
    14:00 +33°C° 0.5 mm 1 mps 707 mmHg 54%
    15:00 +33°C° 0.5 mm 1 mps 707 mmHg 55%
    16:00 +31°C° 0.3 mm 2 mps 707 mmHg 63%
    17:00 +30°C° 0.3 mm 2 mps 707 mmHg 70%
    18:00 +28°C° 0.3 mm 2 mps 707 mmHg 77%
    19:00 +27°C° 0.2 mm 2 mps 707 mmHg 80%
    20:00 +27°C° 0.2 mm 2 mps 708 mmHg 82%
    21:00 +26°C° 0.2 mm 2 mps 708 mmHg 84%
    22:00 +26°C° 0.1 mm 2 mps 708 mmHg 86%
    23:00 +26°C° 0.1 mm 2 mps 708 mmHg 88%

    27 September, Thursday

    Time Temperature Precipitation Wind Pressure Humidity
    00:00 +25°C° 0.1 mm 2 mps 708 mmHg 90%
    01:00 +25°C° 0.1 mm 2 mps 707 mmHg 91%
    02:00 +25°C° 0.1 mm 2 mps 707 mmHg 91%
    03:00 +25°C° 0.1 mm 2 mps 707 mmHg 91%
    04:00 +24°C° 0.2 mm 2 mps 707 mmHg 92%
    05:00 +24°C° 0.2 mm 3 mps 707 mmHg 92%
    06:00 +24°C° 0.2 mm 3 mps 708 mmHg 92%
    07:00 +25°C° 0 mm 3 mps 708 mmHg 88%
    08:00 +27°C° 0 mm 3 mps 709 mmHg 83%
    09:00 +28°C° 0 mm 3 mps 710 mmHg 79%
    10:00 +29°C° 0 mm 3 mps 709 mmHg 72%
    11:00 +31°C° 0 mm 3 mps 709 mmHg 66%
    12:00 +33°C° 0 mm 3 mps 708 mmHg 59%
    13:00 +33°C° 0 mm 3 mps 708 mmHg 60%
    14:00 +33°C° 0 mm 3 mps 707 mmHg 60%
    15:00 +33°C° 0 mm 3 mps 706 mmHg 61%
    16:00 +31°C° 1.9 mm 2 mps 707 mmHg 68%
    17:00 +29°C° 1.9 mm 2 mps 707 mmHg 76%
    18:00 +27°C° 1.9 mm 1 mps 707 mmHg 83%
    19:00 +27°C° 0.4 mm 1 mps 708 mmHg 85%
    20:00 +26°C° 0.4 mm 2 mps 708 mmHg 87%
    21:00 +26°C° 0.4 mm 2 mps 708 mmHg 88%
    22:00 +26°C° 0.3 mm 2 mps 708 mmHg 89%
    23:00 +25°C° 0.3 mm 2 mps 708 mmHg 90%

    28 September, Friday

    Time Temperature Precipitation Wind Pressure Humidity
    00:00 +25°C° 0.3 mm 2 mps 707 mmHg 90%
    01:00 +25°C° 0 mm 2 mps 707 mmHg 91%
    02:00 +25°C° 0 mm 2 mps 707 mmHg 91%
    03:00 +24°C° 0 mm 2 mps 707 mmHg 92%
    04:00 +24°C° 0 mm 2 mps 707 mmHg 92%
    05:00 +24°C° 0 mm 3 mps 708 mmHg 92%
    06:00 +24°C° 0 mm 3 mps 708 mmHg 93%
    07:00 +25°C° 0 mm 3 mps 709 mmHg 89%
    08:00 +26°C° 0 mm 3 mps 709 mmHg 86%
    09:00 +27°C° 0 mm 3 mps 709 mmHg 82%
    10:00 +28°C° 0 mm 3 mps 709 mmHg 78%
    11:00 +29°C° 0 mm 3 mps 708 mmHg 74%
    12:00 +30°C° 0 mm 3 mps 708 mmHg 70%
    13:00 +30°C° 0.2 mm 3 mps 708 mmHg 69%
    14:00 +30°C° 0.2 mm 3 mps 707 mmHg 68%
    15:00 +31°C° 0.2 mm 3 mps 707 mmHg 68%
    16:00 +29°C° 0.2 mm 2 mps 708 mmHg 73%
    17:00 +28°C° 0.2 mm 1 mps 708 mmHg 78%
    18:00 +27°C° 0.2 mm 1 mps 708 mmHg 83%
    19:00 +27°C° 0.9 mm 1 mps 708 mmHg 85%
    20:00 +26°C° 0.9 mm 2 mps 708 mmHg 87%
    21:00 +26°C° 0.9 mm 2 mps 708 mmHg 89%
    22:00 +25°C° 0.5 mm 2 mps 708 mmHg 90%
    23:00 +25°C° 0.5 mm 2 mps 708 mmHg 91%

    29 September, Saturday

    Time Temperature Precipitation Wind Pressure Humidity
    00:00 +25°C° 0.5 mm 1 mps 708 mmHg 92%
    01:00 +25°C° 0.5 mm 1 mps 708 mmHg 90%
    02:00 +25°C° 0.5 mm 1 mps 707 mmHg 88%
    03:00 +23°C° 0.5 mm 0 mps 707 mmHg 87%
    04:00 +23°C° 0 mm 0 mps 708 mmHg 86%
    05:00 +23°C° 0 mm 0 mps 708 mmHg 86%
    06:00 +23°C° 0 mm 0 mps 708 mmHg 86%
    07:00 +24°C° 0.2 mm 0 mps 709 mmHg 80%
    08:00 +26°C° 0.2 mm 0 mps 709 mmHg 75%
    09:00 +29°C° 0.2 mm 1 mps 710 mmHg 69%
    10:00 +30°C° 0.5 mm 1 mps 709 mmHg 66%
    11:00 +31°C° 0.5 mm 1 mps 708 mmHg 63%
    12:00 +31°C° 0.5 mm 2 mps 708 mmHg 61%
    13:00 +31°C° 0.2 mm 2 mps 707 mmHg 63%
    14:00 +31°C° 0.2 mm 1 mps 707 mmHg 65%
    15:00 +30°C° 0.2 mm 1 mps 707 mmHg 67%
    16:00 +29°C° 0.9 mm 1 mps 707 mmHg 71%
    17:00 +28°C° 0.9 mm 1 mps 707 mmHg 75%
    18:00 +27°C° 0.9 mm 1 mps 707 mmHg 80%
    19:00 +27°C° 0 mm 1 mps 707 mmHg 81%
    20:00 +26°C° 0 mm 1 mps 708 mmHg 82%
    21:00 +26°C° 0 mm 1 mps 708 mmHg 83%
    22:00 +26°C° 0 mm 1 mps 707 mmHg 83%
    23:00 +26°C° 0 mm 1 mps 707 mmHg 84%
    Show more